• In Deutschland
  • Länderverzeichnis
  • Für 7 Tage
  • Wassertemperatur
  • Satellitenkarten
  • Wetterkarte
  • Widgets
  • user-avatar
    Anmelden

    Stündliche Wetter Zchaltubo

    Heute, 22 Februar, Donnerstag

    Zeit Temperatur Niederschläge Wind Luftdruck Luftfeuchtigkeit
    00:00 +8°C° 0 mm 2 m/S 744 mmHg 65%
    01:00 +8°C° 0 mm 2 m/S 744 mmHg 65%
    02:00 +8°C° 0 mm 2 m/S 743 mmHg 66%
    03:00 +8°C° 0 mm 3 m/S 743 mmHg 63%
    04:00 +8°C° 0 mm 2 m/S 743 mmHg 64%
    05:00 +8°C° 0 mm 2 m/S 743 mmHg 65%
    06:00 +7°C° 0 mm 2 m/S 743 mmHg 66%
    07:00 +8°C° 0 mm 2 m/S 743 mmHg 63%
    08:00 +9°C° 0 mm 2 m/S 743 mmHg 61%
    09:00 +12°C° 0 mm 2 m/S 742 mmHg 59%
    10:00 +13°C° 0 mm 2 m/S 742 mmHg 56%
    11:00 +14°C° 0 mm 2 m/S 742 mmHg 54%
    12:00 +15°C° 0 mm 2 m/S 742 mmHg 51%
    13:00 +16°C° 0 mm 1 m/S 741 mmHg 51%
    14:00 +16°C° 0 mm 1 m/S 741 mmHg 50%
    15:00 +16°C° 0 mm 1 m/S 741 mmHg 50%
    16:00 +15°C° 0 mm 1 m/S 741 mmHg 55%
    17:00 +13°C° 0 mm 1 m/S 742 mmHg 61%
    18:00 +11°C° 0 mm 0 m/S 742 mmHg 67%
    19:00 +11°C° 0 mm 1 m/S 742 mmHg 68%
    20:00 +11°C° 0 mm 1 m/S 742 mmHg 69%
    21:00 +10°C° 0 mm 1 m/S 743 mmHg 71%
    22:00 +10°C° 0 mm 1 m/S 743 mmHg 70%
    23:00 +10°C° 0 mm 1 m/S 743 mmHg 70%

    Morgen, 23 Februar, Freitag

    Zeit Temperatur Niederschläge Wind Luftdruck Luftfeuchtigkeit
    00:00 +8°C° 0 mm 2 m/S 743 mmHg 70%
    01:00 +8°C° 0 mm 2 m/S 743 mmHg 69%
    02:00 +8°C° 0 mm 2 m/S 743 mmHg 68%
    03:00 +8°C° 0 mm 2 m/S 743 mmHg 67%
    04:00 +8°C° 0 mm 2 m/S 743 mmHg 66%
    05:00 +7°C° 0 mm 2 m/S 742 mmHg 65%
    06:00 +7°C° 0 mm 2 m/S 742 mmHg 64%
    07:00 +9°C° 0 mm 2 m/S 742 mmHg 61%
    08:00 +10°C° 0 mm 2 m/S 742 mmHg 58%
    09:00 +12°C° 0 mm 2 m/S 742 mmHg 55%
    10:00 +13°C° 0 mm 2 m/S 741 mmHg 52%
    11:00 +15°C° 0 mm 2 m/S 741 mmHg 49%
    12:00 +16°C° 0 mm 2 m/S 740 mmHg 46%
    13:00 +17°C° 0 mm 2 m/S 740 mmHg 46%
    14:00 +18°C° 0 mm 1 m/S 740 mmHg 45%
    15:00 +18°C° 0 mm 1 m/S 740 mmHg 45%
    16:00 +16°C° 0 mm 1 m/S 740 mmHg 50%
    17:00 +14°C° 0 mm 1 m/S 740 mmHg 56%
    18:00 +12°C° 0 mm 0 m/S 740 mmHg 61%
    19:00 +12°C° 0 mm 1 m/S 741 mmHg 63%
    20:00 +11°C° 0 mm 1 m/S 741 mmHg 64%
    21:00 +11°C° 0 mm 1 m/S 741 mmHg 66%
    22:00 +11°C° 0 mm 1 m/S 741 mmHg 67%
    23:00 +10°C° 0 mm 1 m/S 741 mmHg 68%

    übermorgen, 24 Februar, Samstag

    Zeit Temperatur Niederschläge Wind Luftdruck Luftfeuchtigkeit
    00:00 +10°C° 0 mm 1 m/S 741 mmHg 69%
    01:00 +10°C° 0 mm 1 m/S 741 mmHg 69%
    02:00 +9°C° 0 mm 1 m/S 742 mmHg 70%
    03:00 +9°C° 0 mm 1 m/S 742 mmHg 71%
    04:00 +9°C° 0 mm 1 m/S 742 mmHg 72%
    05:00 +9°C° 0 mm 1 m/S 742 mmHg 72%
    06:00 +8°C° 0 mm 1 m/S 742 mmHg 72%
    07:00 +9°C° 0 mm 1 m/S 741 mmHg 69%
    08:00 +9°C° 0 mm 0 m/S 741 mmHg 67%
    09:00 +10°C° 0 mm 0 m/S 741 mmHg 64%
    10:00 +11°C° 0 mm 0 m/S 741 mmHg 60%
    11:00 +13°C° 0 mm 1 m/S 740 mmHg 57%
    12:00 +15°C° 0 mm 1 m/S 740 mmHg 54%
    13:00 +15°C° 0 mm 1 m/S 740 mmHg 54%
    14:00 +15°C° 0 mm 1 m/S 739 mmHg 55%
    15:00 +15°C° 0 mm 1 m/S 739 mmHg 55%
    16:00 +14°C° 0 mm 1 m/S 739 mmHg 61%
    17:00 +12°C° 0 mm 1 m/S 739 mmHg 67%
    18:00 +10°C° 0 mm 0 m/S 739 mmHg 73%
    19:00 +11°C° 0 mm 1 m/S 740 mmHg 74%
    20:00 +10°C° 0 mm 1 m/S 740 mmHg 74%
    21:00 +10°C° 0 mm 1 m/S 740 mmHg 75%
    22:00 +10°C° 0 mm 1 m/S 740 mmHg 74%
    23:00 +10°C° 0 mm 1 m/S 740 mmHg 73%

    25 Februar, Sonntag

    Zeit Temperatur Niederschläge Wind Luftdruck Luftfeuchtigkeit
    00:00 +8°C° 0 mm 2 m/S 740 mmHg 72%
    01:00 +8°C° 0 mm 2 m/S 740 mmHg 71%
    02:00 +8°C° 0 mm 2 m/S 740 mmHg 69%
    03:00 +8°C° 0 mm 2 m/S 739 mmHg 68%
    04:00 +8°C° 0 mm 2 m/S 739 mmHg 66%
    05:00 +7°C° 0 mm 2 m/S 739 mmHg 65%
    06:00 +7°C° 0 mm 2 m/S 739 mmHg 63%
    07:00 +9°C° 0 mm 2 m/S 738 mmHg 59%
    08:00 +10°C° 0 mm 2 m/S 738 mmHg 56%
    09:00 +12°C° 0 mm 2 m/S 738 mmHg 52%
    10:00 +14°C° 0 mm 2 m/S 737 mmHg 48%
    11:00 +15°C° 0 mm 2 m/S 737 mmHg 44%
    12:00 +17°C° 0 mm 2 m/S 736 mmHg 40%
    13:00 +17°C° 0 mm 2 m/S 736 mmHg 39%
    14:00 +17°C° 0 mm 2 m/S 735 mmHg 38%
    15:00 +18°C° 0 mm 2 m/S 735 mmHg 37%
    16:00 +16°C° 0 mm 1 m/S 735 mmHg 42%
    17:00 +15°C° 0 mm 1 m/S 736 mmHg 47%
    18:00 +12°C° 0 mm 0 m/S 736 mmHg 52%
    19:00 +12°C° 0 mm 1 m/S 737 mmHg 53%
    20:00 +12°C° 0 mm 1 m/S 737 mmHg 55%
    21:00 +10°C° 0 mm 2 m/S 738 mmHg 56%
    22:00 +10°C° 0 mm 2 m/S 738 mmHg 57%
    23:00 +9°C° 0 mm 2 m/S 738 mmHg 58%

    26 Februar, Montag

    Zeit Temperatur Niederschläge Wind Luftdruck Luftfeuchtigkeit
    00:00 +9°C° 0 mm 2 m/S 738 mmHg 58%
    01:00 +10°C° 0 mm 1 m/S 738 mmHg 60%
    02:00 +9°C° 0 mm 1 m/S 738 mmHg 62%
    03:00 +9°C° 0 mm 1 m/S 738 mmHg 63%
    04:00 +9°C° 0 mm 1 m/S 738 mmHg 67%
    05:00 +8°C° 0 mm 1 m/S 739 mmHg 71%
    06:00 +8°C° 0 mm 1 m/S 739 mmHg 74%
    07:00 +8°C° 0,4 mm 1 m/S 739 mmHg 79%
    08:00 +8°C° 0,4 mm 1 m/S 740 mmHg 85%
    09:00 +8°C° 0,4 mm 2 m/S 740 mmHg 90%
    10:00 +8°C° 0,9 mm 2 m/S 740 mmHg 89%
    11:00 +8°C° 0,9 mm 2 m/S 740 mmHg 89%
    12:00 +8°C° 0,9 mm 3 m/S 740 mmHg 88%
    13:00 +8°C° 0,7 mm 2 m/S 740 mmHg 88%
    14:00 +8°C° 0,7 mm 2 m/S 740 mmHg 88%
    15:00 +8°C° 0,7 mm 2 m/S 740 mmHg 88%
    16:00 +7°C° 0,2 mm 2 m/S 741 mmHg 89%
    17:00 +8°C° 0,2 mm 1 m/S 741 mmHg 90%
    18:00 +8°C° 0,2 mm 1 m/S 742 mmHg 91%
    19:00 +7°C° 0,1 mm 1 m/S 742 mmHg 91%
    20:00 +7°C° 0,1 mm 1 m/S 742 mmHg 92%
    21:00 +6°C° 0,1 mm 0 m/S 742 mmHg 93%
    22:00 +6°C° 0 mm 1 m/S 742 mmHg 90%
    23:00 +6°C° 0 mm 1 m/S 742 mmHg 88%

    27 Februar, Dienstag

    Zeit Temperatur Niederschläge Wind Luftdruck Luftfeuchtigkeit
    00:00 +6°C° 0 mm 1 m/S 742 mmHg 86%
    01:00 +6°C° 0 mm 1 m/S 742 mmHg 82%
    02:00 +5°C° 0 mm 2 m/S 742 mmHg 78%
    03:00 +5°C° 0 mm 2 m/S 742 mmHg 73%
    04:00 +5°C° 0 mm 2 m/S 741 mmHg 70%
    05:00 +5°C° 0 mm 2 m/S 741 mmHg 67%
    06:00 +5°C° 0 mm 2 m/S 741 mmHg 64%
    07:00 +7°C° 0 mm 3 m/S 741 mmHg 60%
    08:00 +9°C° 0 mm 3 m/S 740 mmHg 57%
    09:00 +10°C° 0 mm 3 m/S 740 mmHg 53%
    10:00 +12°C° 0 mm 3 m/S 740 mmHg 51%
    11:00 +13°C° 0 mm 4 m/S 739 mmHg 50%
    12:00 +14°C° 0 mm 4 m/S 739 mmHg 48%
    13:00 +15°C° 0 mm 4 m/S 738 mmHg 48%
    14:00 +15°C° 0 mm 4 m/S 738 mmHg 47%
    15:00 +15°C° 0 mm 4 m/S 738 mmHg 47%
    16:00 +13°C° 0 mm 4 m/S 738 mmHg 50%
    17:00 +12°C° 0 mm 4 m/S 739 mmHg 53%
    18:00 +11°C° 0 mm 4 m/S 739 mmHg 56%
    19:00 +10°C° 0 mm 4 m/S 740 mmHg 56%
    20:00 +10°C° 0 mm 4 m/S 740 mmHg 56%
    21:00 +10°C° 0 mm 4 m/S 741 mmHg 56%
    22:00 +9°C° 0 mm 3 m/S 741 mmHg 57%
    23:00 +9°C° 0 mm 3 m/S 741 mmHg 58%
    Mehr zeigen